Home > Weather > Clarington > Past weeks

Flag for Canada Past Weather in Clarington, Ontario, Canada — Yesterday and Last 2 Weeks

Now
63 °F

Sunny.


Feels Like: 63 °F
Forecast: 58 / 76 °F
Wind: 5 mph from North

Location: Peterborough Airport

Current Time: May 24, 2016 at 9:38:49 PM

Latest Report: May 24, 2016 at 9:00 PM


Visibility: 9 mi

Pressure: 29.95 "Hg

Humidity: 64%

Dew Point: 50 °F

Location of ClaringtonLocation

Past Weather in Clarington — Graph

°F

Clarington Temperature Yesterday

Maximum temperature yesterday: 77 °F (at 1:00 PM)
Minimum temperature yesterday: 43 °F (at 4:00 AM)
Average temperature yesterday: 62 °F

High & Low Weather Summary for the Past Weeks

 TemperatureHumidityPressure
High81 °F (May 24, 2:00 PM)100% (May 10, 3:00 AM)30.30 "Hg (May 10, 3:00 AM)
Low30 °F (May 10, 5:00 AM)24% (May 24, 1:00 PM)29.46 "Hg (May 14, 2:00 PM)
Average54 °F65%30.01 "Hg
* Reported May 9 8:00 PM — May 24 8:00 PM, Clarington, Weather by CustomWeather, © 2016

Note: Actual official high and low records may vary slightly from our data, if they occured in-between our weather recording intervals... More about our weather records

Advertising

Clarington Weather History for the Previous 24 Hours

Scroll right to see more
 ConditionsComfort  
Time TempWeatherWind HumidityBarometerVisibility
8:00 PM
Tue, May 24
72 °FSunny.3 mph41%29.93 "Hg9 mi
7:00 PM77 °FSunny.10 mph32%29.93 "Hg9 mi
6:00 PM81 °FSunny.13 mph26%29.92 "Hg9 mi
5:00 PM81 °FSunny.13 mph26%29.93 "Hg9 mi
4:00 PM81 °FSunny.13 mph28%29.94 "Hg9 mi
3:00 PM81 °FSunny.10 mph24%29.94 "Hg9 mi
2:00 PM81 °FSunny.10 mph28%29.95 "Hg9 mi
1:00 PM79 °FSunny.9 mph24%29.96 "Hg9 mi
12:00 PM77 °FSunny.10 mph28%29.97 "Hg9 mi
11:00 AM73 °FSunny.3 mph25%29.98 "Hg9 mi
10:00 AM72 °FSunny.5 mph29%29.98 "Hg9 mi
9:00 AM63 °FSunny.No wind52%29.98 "Hg9 mi
8:00 AM57 °FSunny.2 mph67%29.98 "Hg9 mi
7:00 AM46 °FSunny.2 mph93%29.98 "Hg9 mi
6:00 AM43 °FClear.2 mph93%29.98 "Hg9 mi
5:00 AM43 °FClear.No wind93%29.96 "Hg9 mi
4:00 AM43 °FClear.No wind100%29.96 "Hg9 mi
3:00 AM46 °FClear.3 mph93%29.96 "Hg9 mi
2:00 AM48 °FClear.2 mph94%29.96 "Hg9 mi
1:00 AM52 °FClear.No wind82%29.96 "Hg9 mi
12:00 AM50 °FClear.2 mph88%29.96 "Hg9 mi
11:00 PM
Mon, May 23
54 °FClear.2 mph77%29.96 "Hg9 mi
10:00 PM59 °FClear.2 mph63%29.95 "Hg9 mi
9:00 PM64 °FSunny.5 mph46%29.93 "Hg9 mi
Weather by CustomWeather, © 2016

See weather overviewHow to use our weather pages